| time (UTC) | temp F | wind direction | speed MPH | gust MPH | rain 1hr in | rain 24hr in | rain mn in | humidity % | barometer mb |
| 20260510033549 | 77 | 172 | 9.0 | 11.0 | 0.00 | 0.00 | 0.00 | 61 | 1012.1 |
| 20260510033058 | 77 | 180 | 9.0 | 14.0 | 0.00 | 0.00 | 0.00 | 60 | 1012.0 |
| 20260510032549 | 77 | 170 | 9.0 | 14.0 | 0.00 | 0.00 | 0.00 | 59 | 1012.1 |
| 20260510032048 | 78 | 169 | 10.0 | 14.0 | 0.00 | 0.00 | 0.00 | 58 | 1012.0 |
| 20260510031553 | 78 | 173 | 9.0 | 12.0 | 0.00 | 0.00 | 0.00 | 57 | 1012.0 |
| 20260510031048 | 78 | 163 | 9.0 | 12.0 | 0.00 | 0.00 | 0.00 | 56 | 1012.0 |
| 20260510030547 | 79 | 174 | 9.0 | 12.0 | 0.00 | 0.00 | 0.00 | 56 | 1011.9 |
| 20260510030110 | 79 | 180 | 9.0 | 12.0 | 0.00 | 0.00 | 0.00 | 56 | 1011.9 |
| 20260510025546 | 79 | 169 | 9.0 | 12.0 | 0.00 | 0.00 | 0.00 | 56 | 1011.9 |
| 20260510025048 | 79 | 178 | 8.0 | 11.0 | 0.00 | 0.00 | 0.00 | 56 | 1011.8 |
| 20260510024559 | 79 | 170 | 8.0 | 11.0 | 0.00 | 0.00 | 0.00 | 55 | 1011.7 |
| 20260510024049 | 79 | 179 | 8.0 | 11.0 | 0.00 | 0.00 | 0.00 | 54 | 1011.7 |
| 20260510023548 | 80 | 173 | 8.0 | 11.0 | 0.00 | 0.00 | 0.00 | 53 | 1011.6 |
| 20260510023056 | 80 | 167 | 8.0 | 10.0 | 0.00 | 0.00 | 0.00 | 53 | 1011.7 |
| 20260510022552 | 80 | 169 | 7.0 | 10.0 | 0.00 | 0.00 | 0.00 | 52 | 1011.7 |
| 20260510022050 | 81 | 168 | 7.0 | 11.0 | 0.00 | 0.00 | 0.00 | 51 | 1011.6 |
| 20260510021604 | 81 | 173 | 8.0 | 11.0 | 0.00 | 0.00 | 0.00 | 50 | 1011.4 |
| 20260510021049 | 81 | 165 | 8.0 | 11.0 | 0.00 | 0.00 | 0.00 | 50 | 1011.4 |
| 20260510020550 | 82 | 174 | 8.0 | 10.0 | 0.00 | 0.00 | 0.00 | 49 | 1011.4 |
| 20260510020053 | 82 | 169 | 8.0 | 10.0 | 0.00 | 0.00 | 0.00 | 48 | 1011.4 |
| 20260510015549 | 82 | 170 | 6.0 | 9.0 | 0.00 | 0.00 | 0.00 | 47 | 1011.4 |
| 20260510015049 | 83 | 169 | 6.0 | 9.0 | 0.00 | 0.00 | 0.00 | 46 | 1011.3 |
| 20260510014600 | 83 | 171 | 6.0 | 9.0 | 0.00 | 0.00 | 0.00 | 45 | 1011.2 |
| 20260510014049 | 84 | 174 | 5.0 | 8.0 | 0.00 | 0.00 | 0.00 | 45 | 1011.2 |
| 20260510013552 | 84 | 202 | 4.0 | 7.0 | 0.00 | 0.00 | 0.00 | 44 | 1011.0 |
| 20260510013103 | 85 | 202 | 5.0 | 7.0 | 0.00 | 0.00 | 0.00 | 43 | 1010.9 |
| 20260510012549 | 85 | 187 | 5.0 | 8.0 | 0.00 | 0.00 | 0.00 | 42 | 1010.8 |
| 20260510012046 | 86 | 183 | 5.0 | 9.0 | 0.00 | 0.00 | 0.00 | 41 | 1010.7 |
| 20260510011556 | 86 | 181 | 6.0 | 9.0 | 0.00 | 0.00 | 0.00 | 41 | 1010.7 |
| 20260510011050 | 87 | 192 | 6.0 | 8.0 | 0.00 | 0.00 | 0.00 | 40 | 1010.7 |
| 20260510010549 | 87 | 196 | 5.0 | 10.0 | 0.00 | 0.00 | 0.00 | 38 | 1010.7 |
| 20260510010055 | 87 | 182 | 7.0 | 12.0 | 0.00 | 0.00 | 0.00 | 37 | 1010.8 |
| 20260510005549 | 88 | 159 | 7.0 | 12.0 | 0.00 | 0.00 | 0.00 | 37 | 1010.7 |
| 20260510005049 | 88 | 161 | 7.0 | 16.0 | 0.00 | 0.00 | 0.00 | 36 | 1010.7 |
| 20260510004552 | 88 | 196 | 9.0 | 16.0 | 0.00 | 0.00 | 0.00 | 36 | 1010.7 |
| 20260510004049 | 88 | 174 | 9.0 | 15.0 | 0.00 | 0.00 | 0.00 | 37 | 1010.6 |
| 20260510003549 | 88 | 174 | 8.0 | 12.0 | 0.00 | 0.00 | 0.00 | 37 | 1010.7 |
| 20260510003104 | 89 | 198 | 8.0 | 15.0 | 0.00 | 0.00 | 0.00 | 38 | 1010.6 |
| 20260510002548 | 89 | 214 | 10.0 | 15.0 | 0.00 | 0.00 | 0.00 | 38 | 1010.6 |
| 20260510002048 | 89 | 198 | 8.0 | 12.0 | 0.00 | 0.00 | 0.00 | 38 | 1010.7 |
| 20260510001554 | 89 | 246 | 8.0 | 12.0 | 0.00 | 0.00 | 0.00 | 38 | 1010.6 |
| 20260510001049 | 89 | 223 | 7.0 | 12.0 | 0.00 | 0.00 | 0.00 | 38 | 1010.7 |
| 20260510000552 | 89 | 197 | 8.0 | 15.0 | 0.00 | 0.00 | 0.00 | 38 | 1010.6 |
| 20260510000126 | 89 | 230 | 9.0 | 15.0 | 0.00 | 0.00 | 0.00 | 37 | 1010.5 |
| 20260509235549 | 90 | 226 | 8.0 | 15.0 | 0.00 | 0.00 | 0.00 | 36 | 1010.5 |
| 20260509235047 | 90 | 179 | 3.0 | 12.0 | 0.00 | 0.00 | 0.00 | 37 | 1010.4 |
| 20260509234552 | 89 | 221 | 7.0 | 12.0 | 0.00 | 0.00 | 0.00 | 38 | 1010.4 |
| 20260509234050 | 90 | 197 | 7.0 | 14.0 | 0.00 | 0.00 | 0.00 | 38 | 1010.4 |
| 20260509233548 | 90 | 238 | 8.0 | 16.0 | 0.00 | 0.00 | 0.00 | 38 | 1010.4 |
| 20260509233054 | 90 | 208 | 5.0 | 16.0 | 0.00 | 0.00 | 0.00 | 37 | 1010.5 |
| 20260509232550 | 90 | 225 | 7.0 | 13.0 | 0.00 | 0.00 | 0.00 | 37 | 1010.6 |
| 20260509232049 | 90 | 227 | 8.0 | 13.0 | 0.00 | 0.00 | 0.00 | 37 | 1010.5 |
| 20260509231559 | 90 | 225 | 6.0 | 13.0 | 0.00 | 0.00 | 0.00 | 37 | 1010.5 |
| 20260509231048 | 90 | 236 | 7.0 | 14.0 | 0.00 | 0.00 | 0.00 | 37 | 1010.6 |
| 20260509230549 | 90 | 219 | 10.0 | 14.0 | 0.00 | 0.00 | 0.00 | 37 | 1010.5 |
| 20260509230057 | 90 | 190 | 4.0 | 15.0 | 0.00 | 0.00 | 0.00 | 37 | 1010.6 |
| 20260509225550 | 90 | 200 | 5.0 | 15.0 | 0.00 | 0.00 | 0.00 | 36 | 1010.7 |
| 20260509225049 | 90 | 150 | 9.0 | 15.0 | 0.00 | 0.00 | 0.00 | 37 | 1010.6 |
| 20260509224556 | 90 | 195 | 9.0 | 15.0 | 0.00 | 0.00 | 0.00 | 37 | 1010.6 |
| 20260509224049 | 90 | 215 | 9.0 | 15.0 | 0.00 | 0.00 | 0.00 | 35 | 1010.6 |
| 20260509223550 | 90 | 188 | 6.0 | 12.0 | 0.00 | 0.00 | 0.00 | 34 | 1010.5 |
| 20260509223103 | 90 | 224 | 5.0 | 15.0 | 0.00 | 0.00 | 0.00 | 35 | 1010.4 |
| 20260509222549 | 90 | 236 | 7.0 | 16.0 | 0.00 | 0.00 | 0.00 | 34 | 1010.4 |
| 20260509222049 | 90 | 163 | 9.0 | 16.0 | 0.00 | 0.00 | 0.00 | 35 | 1010.4 |
| 20260509221604 | 90 | 230 | 7.0 | 15.0 | 0.00 | 0.00 | 0.00 | 36 | 1010.4 |
| 20260509221049 | 90 | 182 | 8.0 | 15.0 | 0.00 | 0.00 | 0.00 | 37 | 1010.5 |
| 20260509220549 | 90 | 212 | 9.0 | 15.0 | 0.00 | 0.00 | 0.00 | 37 | 1010.5 |
| 20260509220056 | 90 | 215 | 7.0 | 17.0 | 0.00 | 0.00 | 0.00 | 35 | 1010.5 |
| 20260509215549 | 90 | 232 | 10.0 | 17.0 | 0.00 | 0.00 | 0.00 | 35 | 1010.6 |
| 20260509215053 | 90 | 229 | 7.0 | 17.0 | 0.00 | 0.00 | 0.00 | 36 | 1010.6 |
| 20260509214602 | 90 | 201 | 7.0 | 10.0 | 0.00 | 0.00 | 0.00 | 36 | 1010.7 |
| 20260509214048 | 90 | 0 | 3.0 | 11.0 | 0.00 | 0.00 | 0.00 | 37 | 1010.6 |
| 20260509213549 | 90 | 217 | 6.0 | 14.0 | 0.00 | 0.00 | 0.00 | 35 | 1011.0 |
| 20260509213053 | 90 | 242 | 8.0 | 16.0 | 0.00 | 0.00 | 0.00 | 35 | 1011.0 |
| 20260509212549 | 89 | 234 | 6.0 | 17.0 | 0.00 | 0.00 | 0.00 | 38 | 1011.1 |
| 20260509212049 | 89 | 155 | 8.0 | 17.0 | 0.00 | 0.00 | 0.00 | 38 | 1011.2 |
| 20260509211553 | 90 | 231 | 10.0 | 17.0 | 0.00 | 0.00 | 0.00 | 37 | 1011.3 |
| 20260509211047 | 89 | 240 | 5.0 | 14.0 | 0.00 | 0.00 | 0.00 | 38 | 1011.3 |
| 20260509210549 | 90 | 226 | 9.0 | 14.0 | 0.00 | 0.00 | 0.00 | 37 | 1011.4 |
| 20260509210051 | 89 | 188 | 5.0 | 16.0 | 0.00 | 0.00 | 0.00 | 39 | 1011.5 |
| 20260509205550 | 89 | 230 | 9.0 | 16.0 | 0.00 | 0.00 | 0.00 | 39 | 1011.5 |
| 20260509205049 | 89 | 161 | 7.0 | 16.0 | 0.00 | 0.00 | 0.00 | 39 | 1011.6 |
| 20260509204553 | 89 | 239 | 9.0 | 16.0 | 0.00 | 0.00 | 0.00 | 39 | 1011.7 |
| 20260509204049 | 89 | 171 | 4.0 | 17.0 | 0.00 | 0.00 | 0.00 | 38 | 1011.6 |
| 20260509203552 | 89 | 161 | 8.0 | 21.0 | 0.00 | 0.00 | 0.00 | 36 | 1011.8 |
| 20260509203055 | 89 | 167 | 12.0 | 21.0 | 0.00 | 0.00 | 0.00 | 38 | 1011.9 |
| 20260509202549 | 89 | 170 | 9.0 | 16.0 | 0.00 | 0.00 | 0.00 | 39 | 1011.9 |
| 20260509202050 | 88 | 239 | 4.0 | 17.0 | 0.00 | 0.00 | 0.00 | 37 | 1012.0 |
| 20260509201554 | 88 | 201 | 7.0 | 17.0 | 0.00 | 0.00 | 0.00 | 38 | 1012.2 |
| 20260509201049 | 88 | 180 | 10.0 | 20.0 | 0.00 | 0.00 | 0.00 | 38 | 1012.4 |
| 20260509200547 | 88 | 165 | 8.0 | 20.0 | 0.00 | 0.00 | 0.00 | 37 | 1012.3 |
| 20260509200108 | 88 | 215 | 11.0 | 20.0 | 0.00 | 0.00 | 0.00 | 43 | 1012.3 |
| 20260509195547 | 88 | 171 | 6.0 | 18.0 | 0.00 | 0.00 | 0.00 | 41 | 1012.4 |
| 20260509195048 | 88 | 230 | 7.0 | 18.0 | 0.00 | 0.00 | 0.00 | 42 | 1012.3 |
| 20260509194556 | 87 | 248 | 9.0 | 18.0 | 0.00 | 0.00 | 0.00 | 42 | 1012.5 |
| 20260509194047 | 87 | 233 | 5.0 | 21.0 | 0.00 | 0.00 | 0.00 | 43 | 1012.6 |
| 20260509193550 | 87 | 250 | 7.0 | 21.0 | 0.00 | 0.00 | 0.00 | 42 | 1012.7 |
| 20260509193056 | 87 | 238 | 13.0 | 21.0 | 0.00 | 0.00 | 0.00 | 40 | 1012.7 |
| 20260509192547 | 87 | 238 | 7.0 | 20.0 | 0.00 | 0.00 | 0.00 | 43 | 1012.7 |
| 20260509192053 | 87 | 207 | 9.0 | 20.0 | 0.00 | 0.00 | 0.00 | 44 | 1012.8 |
| 20260509191552 | 86 | 163 | 8.0 | 17.0 | 0.00 | 0.00 | 0.00 | 44 | 1012.8 |
| 20260509191049 | 86 | 173 | 11.0 | 17.0 | 0.00 | 0.00 | 0.00 | 46 | 1013.0 |
| 20260509190549 | 86 | 234 | 7.0 | 15.0 | 0.00 | 0.00 | 0.00 | 46 | 1013.1 |
| 20260509190054 | 85 | 223 | 8.0 | 18.0 | 0.00 | 0.00 | 0.00 | 45 | 1013.2 |
| 20260509185552 | 85 | 221 | 11.0 | 18.0 | 0.00 | 0.00 | 0.00 | 47 | 1013.2 |
| 20260509185048 | 85 | 236 | 9.0 | 17.0 | 0.00 | 0.00 | 0.00 | 46 | 1013.2 |
| 20260509184555 | 85 | 232 | 9.0 | 17.0 | 0.00 | 0.00 | 0.00 | 46 | 1013.3 |
| 20260509184048 | 85 | 217 | 6.0 | 16.0 | 0.00 | 0.00 | 0.00 | 47 | 1013.3 |
| 20260509183548 | 85 | 227 | 6.0 | 15.0 | 0.00 | 0.00 | 0.00 | 48 | 1013.4 |
| 20260509183109 | 85 | 182 | 9.0 | 15.0 | 0.00 | 0.00 | 0.00 | 47 | 1013.5 |
| 20260509182549 | 84 | 202 | 7.0 | 17.0 | 0.00 | 0.00 | 0.00 | 48 | 1013.5 |
| 20260509182051 | 85 | 160 | 8.0 | 17.0 | 0.00 | 0.00 | 0.00 | 49 | 1013.5 |
| 20260509181554 | 85 | 214 | 9.0 | 16.0 | 0.00 | 0.00 | 0.00 | 48 | 1013.7 |
| 20260509181050 | 84 | 199 | 7.0 | 14.0 | 0.00 | 0.00 | 0.00 | 50 | 1013.8 |
| 20260509180553 | 84 | 279 | 6.0 | 14.0 | 0.00 | 0.00 | 0.00 | 52 | 1013.6 |
| 20260509180056 | 84 | 226 | 9.0 | 14.0 | 0.00 | 0.00 | 0.00 | 50 | 1013.9 |
| 20260509175551 | 84 | 241 | 3.0 | 14.0 | 0.00 | 0.00 | 0.00 | 51 | 1013.9 |
| 20260509175050 | 83 | 171 | 6.0 | 14.0 | 0.00 | 0.00 | 0.00 | 51 | 1014.0 |
| 20260509174556 | 83 | 165 | 7.0 | 14.0 | 0.00 | 0.00 | 0.00 | 53 | 1013.9 |
| 20260509174049 | 83 | 221 | 7.0 | 14.0 | 0.00 | 0.00 | 0.00 | 53 | 1014.0 |
| 20260509173551 | 83 | 165 | 4.0 | 14.0 | 0.00 | 0.00 | 0.00 | 53 | 1014.1 |
| 20260509173102 | 83 | 220 | 5.0 | 13.0 | 0.00 | 0.00 | 0.00 | 53 | 1014.2 |
| 20260509172548 | 82 | 172 | 7.0 | 13.0 | 0.00 | 0.00 | 0.00 | 54 | 1014.1 |
| 20260509172048 | 82 | 223 | 4.0 | 10.0 | 0.00 | 0.00 | 0.00 | 55 | 1014.2 |
| 20260509171558 | 82 | 168 | 6.0 | 10.0 | 0.00 | 0.00 | 0.00 | 54 | 1014.2 |
| 20260509171051 | 82 | 224 | 5.0 | 11.0 | 0.00 | 0.00 | 0.00 | 55 | 1014.3 |
| 20260509170554 | 82 | 216 | 6.0 | 12.0 | 0.00 | 0.00 | 0.00 | 56 | 1014.4 |
| 20260509165551 | 81 | 205 | 5.0 | 15.0 | 0.00 | 0.00 | 0.00 | 55 | 1014.3 |
| 20260509165051 | 81 | 193 | 7.0 | 15.0 | 0.00 | 0.00 | 0.00 | 57 | 1014.3 |
| 20260509164602 | 80 | 223 | 6.0 | 14.0 | 0.00 | 0.00 | 0.00 | 59 | 1014.3 |
| 20260509164051 | 80 | 221 | 6.0 | 14.0 | 0.00 | 0.00 | 0.00 | 59 | 1014.3 |
| 20260509163551 | 80 | 193 | 7.0 | 14.0 | 0.00 | 0.00 | 0.00 | 60 | 1014.3 |
| 20260509163105 | 80 | 234 | 5.0 | 14.0 | 0.00 | 0.00 | 0.00 | 60 | 1014.1 |
| 20260509162551 | 80 | 233 | 8.0 | 14.0 | 0.00 | 0.00 | 0.00 | 60 | 1014.1 |
| 20260509162048 | 79 | 200 | 6.0 | 10.0 | 0.00 | 0.00 | 0.00 | 61 | 1014.1 |
| 20260509161600 | 79 | 232 | 4.0 | 10.0 | 0.00 | 0.00 | 0.00 | 63 | 1014.1 |
| 20260509161051 | 78 | 259 | 4.0 | 11.0 | 0.00 | 0.00 | 0.00 | 63 | 1014.0 |
| 20260509160548 | 78 | 204 | 5.0 | 11.0 | 0.00 | 0.00 | 0.00 | 65 | 1014.0 |
| 20260509160057 | 78 | 191 | 3.0 | 7.0 | 0.00 | 0.00 | 0.00 | 67 | 1014.1 |
| 20260509155551 | 77 | 250 | 2.0 | 7.0 | 0.00 | 0.00 | 0.00 | 69 | 1014.1 |
| 20260509155049 | 77 | 285 | 4.0 | 9.0 | 0.00 | 0.00 | 0.00 | 69 | 1014.2 |
| 20260509154603 | 77 | 230 | 4.0 | 9.0 | 0.00 | 0.00 | 0.00 | 70 | 1014.3 |
| 20260509154050 | 76 | 224 | 3.0 | 7.0 | 0.00 | 0.00 | 0.00 | 71 | 1014.3 |
| 20260509153549 | 76 | 286 | 2.0 | 7.0 | 0.00 | 0.00 | 0.00 | 71 | 1014.3 |
| 20260509153059 | 75 | 242 | 3.0 | 7.0 | 0.00 | 0.00 | 0.00 | 73 | 1014.4 |
| 20260509152550 | 75 | 310 | 2.0 | 8.0 | 0.00 | 0.00 | 0.00 | 76 | 1014.5 |
| 20260509152050 | 74 | 243 | 5.0 | 10.0 | 0.00 | 0.00 | 0.00 | 75 | 1014.5 |
| 20260509151557 | 74 | 253 | 4.0 | 10.0 | 0.00 | 0.00 | 0.00 | 78 | 1014.5 |
| 20260509151050 | 73 | 241 | 2.0 | 8.0 | 0.00 | 0.00 | 0.00 | 79 | 1014.5 |
| 20260509150551 | 73 | 225 | 4.0 | 8.0 | 0.00 | 0.00 | 0.00 | 79 | 1014.6 |
| 20260509150051 | 73 | 234 | 2.0 | 7.0 | 0.00 | 0.00 | 0.00 | 82 | 1014.7 |
| 20260509145550 | 72 | 276 | 3.0 | 7.0 | 0.00 | 0.00 | 0.00 | 83 | 1014.8 |
| 20260509145049 | 71 | 294 | 3.0 | 8.0 | 0.00 | 0.00 | 0.00 | 84 | 1014.7 |
| 20260509144556 | 71 | 221 | 2.0 | 8.0 | 0.00 | 0.00 | 0.00 | 86 | 1014.8 |
| 20260509144048 | 70 | 258 | 1.0 | 7.0 | 0.00 | 0.00 | 0.00 | 88 | 1015.0 |
| 20260509143548 | 70 | 246 | 4.0 | 7.0 | 0.00 | 0.00 | 0.00 | 88 | 1015.0 |
| 20260509143058 | 70 | 265 | 1.0 | 4.0 | 0.00 | 0.00 | 0.00 | 90 | 1014.9 |
| 20260509142549 | 69 | 273 | 0.0 | 3.0 | 0.00 | 0.00 | 0.00 | 91 | 1015.0 |
| 20260509142049 | 69 | 309 | 1.0 | 4.0 | 0.00 | 0.00 | 0.00 | 92 | 1015.0 |
| 20260509141600 | 68 | 336 | 2.0 | 4.0 | 0.00 | 0.00 | 0.00 | 93 | 1015.0 |
| 20260509141050 | 68 | 311 | 1.0 | 4.0 | 0.00 | 0.00 | 0.00 | 94 | 1014.9 |
| 20260509140549 | 68 | 302 | 2.0 | 4.0 | 0.00 | 0.00 | 0.00 | 95 | 1014.9 |
| 20260509135549 | 67 | 0 | 0.0 | 2.0 | 0.00 | 0.00 | 0.00 | 96 | 1014.8 |
| 20260509135051 | 66 | 0 | 0.0 | 3.0 | 0.00 | 0.00 | 0.00 | 96 | 1014.7 |
| 20260509134552 | 66 | 0 | 0.0 | 3.0 | 0.00 | 0.00 | 0.00 | 97 | 1014.7 |
| 20260509134047 | 66 | 0 | 0.0 | 3.0 | 0.00 | 0.00 | 0.00 | 97 | 1014.7 |
| 20260509133547 | 65 | 244 | 1.0 | 4.0 | 0.00 | 0.00 | 0.00 | 97 | 1014.7 |
| 20260509133054 | 65 | 304 | 0.0 | 5.0 | 0.00 | 0.00 | 0.00 | 97 | 1014.7 |
| 20260509132551 | 64 | 238 | 2.0 | 7.0 | 0.00 | 0.00 | 0.00 | 97 | 1014.6 |
| 20260509132047 | 64 | 225 | 3.0 | 7.0 | 0.00 | 0.00 | 0.00 | 96 | 1014.5 |
| 20260509131554 | 63 | 233 | 3.0 | 7.0 | 0.00 | 0.00 | 0.00 | 96 | 1014.7 |
| 20260509131049 | 63 | 232 | 5.0 | 7.0 | 0.00 | 0.00 | 0.00 | 96 | 1014.5 |
| 20260509130549 | 63 | 221 | 3.0 | 7.0 | 0.00 | 0.00 | 0.00 | 96 | 1014.4 |
| 20260509130052 | 62 | 225 | 4.0 | 7.0 | 0.00 | 0.00 | 0.00 | 96 | 1014.4 |
| 20260509125549 | 62 | 231 | 5.0 | 7.0 | 0.00 | 0.00 | 0.00 | 96 | 1014.3 |
| 20260509125049 | 62 | 220 | 3.0 | 5.0 | 0.00 | 0.00 | 0.00 | 96 | 1014.3 |
| 20260509124552 | 62 | 225 | 1.0 | 4.0 | 0.00 | 0.00 | 0.00 | 96 | 1014.4 |
| 20260509124047 | 62 | 265 | 1.0 | 5.0 | 0.00 | 0.00 | 0.00 | 96 | 1014.4 |
| 20260509123549 | 62 | 232 | 4.0 | 5.0 | 0.00 | 0.00 | 0.00 | 96 | 1014.4 |
| 20260509123109 | 62 | 238 | 3.0 | 5.0 | 0.00 | 0.00 | 0.00 | 95 | 1014.1 |
| 20260509122550 | 62 | 232 | 3.0 | 4.0 | 0.00 | 0.00 | 0.00 | 95 | 1014.1 |
| 20260509122048 | 62 | 232 | 0.0 | 4.0 | 0.00 | 0.00 | 0.00 | 95 | 1014.0 |
| 20260509121559 | 62 | 230 | 1.0 | 7.0 | 0.00 | 0.00 | 0.00 | 95 | 1014.0 |
| 20260509121050 | 62 | 203 | 4.0 | 8.0 | 0.00 | 0.00 | 0.00 | 95 | 1014.1 |
| 20260509120547 | 62 | 159 | 5.0 | 8.0 | 0.00 | 0.00 | 0.00 | 96 | 1014.1 |
| 20260509120052 | 62 | 157 | 5.0 | 7.0 | 0.00 | 0.00 | 0.00 | 95 | 1014.0 |
| 20260509115549 | 62 | 188 | 2.0 | 8.0 | 0.00 | 0.00 | 0.00 | 95 | 1013.9 |
| 20260509115049 | 62 | 192 | 3.0 | 9.0 | 0.00 | 0.00 | 0.00 | 95 | 1013.8 |
| 20260509114552 | 62 | 171 | 6.0 | 9.0 | 0.00 | 0.00 | 0.00 | 95 | 1014.1 |
| 20260509114049 | 62 | 186 | 3.0 | 9.0 | 0.00 | 0.00 | 0.00 | 95 | 1014.0 |
| 20260509113554 | 63 | 180 | 6.0 | 9.0 | 0.00 | 0.00 | 0.00 | 95 | 1014.1 |
| 20260509113055 | 62 | 136 | 6.0 | 8.0 | 0.00 | 0.00 | 0.00 | 95 | 1014.1 |
| 20260509112549 | 62 | 126 | 6.0 | 8.0 | 0.00 | 0.00 | 0.00 | 95 | 1014.1 |
| 20260509112049 | 62 | 135 | 5.0 | 8.0 | 0.00 | 0.00 | 0.00 | 95 | 1014.1 |
| 20260509111551 | 62 | 140 | 3.0 | 8.0 | 0.00 | 0.00 | 0.00 | 94 | 1013.9 |
| 20260509111049 | 62 | 151 | 6.0 | 8.0 | 0.00 | 0.00 | 0.00 | 95 | 1013.8 |
| 20260509110548 | 62 | 155 | 5.0 | 9.0 | 0.00 | 0.00 | 0.00 | 95 | 1013.8 |
| 20260509110053 | 62 | 149 | 6.0 | 9.0 | 0.00 | 0.00 | 0.00 | 95 | 1013.6 |
| 20260509105548 | 62 | 152 | 7.0 | 9.0 | 0.00 | 0.00 | 0.00 | 95 | 1013.5 |
| 20260509105050 | 62 | 138 | 3.0 | 6.0 | 0.00 | 0.00 | 0.00 | 95 | 1013.5 |
| 20260509104552 | 62 | 0 | 2.0 | 9.0 | 0.00 | 0.00 | 0.00 | 95 | 1013.5 |
| 20260509104049 | 62 | 162 | 7.0 | 9.0 | 0.00 | 0.00 | 0.00 | 95 | 1013.3 |
| 20260509103550 | 62 | 145 | 1.0 | 5.0 | 0.00 | 0.00 | 0.00 | 95 | 1013.3 |
| 20260509103101 | 62 | 0 | 0.0 | 4.0 | 0.00 | 0.00 | 0.00 | 94 | 1013.2 |
| 20260509102549 | 62 | 185 | 1.0 | 4.0 | 0.00 | 0.00 | 0.00 | 94 | 1013.2 |
| 20260509102050 | 62 | 213 | 2.0 | 5.0 | 0.00 | 0.00 | 0.00 | 94 | 1013.1 |
| 20260509101554 | 62 | 229 | 3.0 | 8.0 | 0.00 | 0.00 | 0.00 | 94 | 1013.1 |
| 20260509101050 | 63 | 218 | 4.0 | 10.0 | 0.00 | 0.00 | 0.00 | 94 | 1013.1 |
| 20260509100549 | 63 | 197 | 6.0 | 10.0 | 0.00 | 0.00 | 0.00 | 95 | 1013.0 |
| 20260509100055 | 63 | 231 | 5.0 | 8.0 | 0.00 | 0.00 | 0.00 | 95 | 1013.0 |
| 20260509095549 | 63 | 230 | 4.0 | 7.0 | 0.00 | 0.00 | 0.00 | 95 | 1013.3 |
| 20260509095048 | 63 | 216 | 4.0 | 7.0 | 0.00 | 0.00 | 0.00 | 95 | 1013.4 |
| 20260509094553 | 63 | 237 | 4.0 | 6.0 | 0.00 | 0.00 | 0.00 | 95 | 1013.6 |
| 20260509094048 | 63 | 223 | 4.0 | 6.0 | 0.00 | 0.00 | 0.00 | 95 | 1013.5 |
| 20260509093550 | 63 | 227 | 4.0 | 6.0 | 0.00 | 0.00 | 0.00 | 95 | 1013.8 |
| 20260509093052 | 63 | 228 | 4.0 | 6.0 | 0.00 | 0.00 | 0.00 | 95 | 1013.8 |
| 20260509092550 | 64 | 204 | 3.0 | 7.0 | 0.00 | 0.00 | 0.00 | 95 | 1014.0 |
| 20260509092049 | 64 | 175 | 5.0 | 8.0 | 0.00 | 0.00 | 0.00 | 95 | 1014.1 |
| 20260509091553 | 64 | 167 | 4.0 | 12.0 | 0.00 | 0.00 | 0.00 | 95 | 1014.3 |
| 20260509091051 | 64 | 128 | 7.0 | 12.0 | 0.00 | 0.00 | 0.00 | 95 | 1014.3 |
| 20260509090550 | 64 | 130 | 11.0 | 12.0 | 0.00 | 0.00 | 0.00 | 95 | 1014.2 |
| 20260509090100 | 64 | 144 | 9.0 | 12.0 | 0.00 | 0.00 | 0.00 | 95 | 1014.0 |
| 20260509085549 | 65 | 137 | 10.0 | 12.0 | 0.00 | 0.00 | 0.00 | 95 | 1014.0 |
| 20260509085051 | 65 | 130 | 8.0 | 11.0 | 0.00 | 0.00 | 0.00 | 95 | 1013.8 |
| 20260509084554 | 65 | 130 | 9.0 | 11.0 | 0.00 | 0.00 | 0.00 | 95 | 1013.9 |
| 20260509084049 | 65 | 118 | 8.0 | 10.0 | 0.00 | 0.00 | 0.00 | 95 | 1014.0 |
| 20260509083552 | 65 | 114 | 6.0 | 12.0 | 0.00 | 0.00 | 0.00 | 95 | 1013.9 |
| 20260509083058 | 65 | 110 | 7.0 | 13.0 | 0.00 | 0.00 | 0.00 | 95 | 1014.0 |
| 20260509082547 | 65 | 96 | 10.0 | 13.0 | 0.00 | 0.00 | 0.00 | 94 | 1014.1 |
| 20260509082048 | 65 | 88 | 10.0 | 13.0 | 0.00 | 0.00 | 0.00 | 94 | 1014.0 |
| 20260509081552 | 65 | 117 | 8.0 | 13.0 | 0.00 | 0.00 | 0.00 | 93 | 1013.8 |
| 20260509081050 | 65 | 115 | 7.0 | 13.0 | 0.00 | 0.00 | 0.00 | 93 | 1013.7 |
| 20260509080553 | 65 | 154 | 10.0 | 13.0 | 0.00 | 0.00 | 0.00 | 93 | 1013.4 |
| 20260509080059 | 65 | 0 | 0.0 | 5.0 | 0.00 | 0.00 | 0.00 | 93 | 1013.7 |
| 20260509075549 | 65 | 134 | 1.0 | 5.0 | 0.00 | 0.00 | 0.00 | 93 | 1013.7 |
| 20260509075049 | 65 | 13 | 4.0 | 5.0 | 0.00 | 0.00 | 0.00 | 93 | 1014.1 |
| 20260509074606 | 65 | 63 | 1.0 | 7.0 | 0.00 | 0.00 | 0.00 | 93 | 1013.9 |
| 20260509074046 | 65 | 44 | 4.0 | 8.0 | 0.00 | 0.00 | 0.00 | 93 | 1013.9 |
| 20260509073549 | 65 | 10 | 4.0 | 8.0 | 0.00 | 0.00 | 0.00 | 93 | 1014.0 |
| 20260509073054 | 65 | 10 | 6.0 | 9.0 | 0.00 | 0.00 | 0.00 | 93 | 1014.0 |
| 20260509072547 | 65 | 360 | 4.0 | 16.0 | 0.00 | 0.00 | 0.00 | 92 | 1013.9 |
| 20260509072049 | 65 | 340 | 11.0 | 16.0 | 0.00 | 0.00 | 0.00 | 93 | 1013.9 |
| 20260509071609 | 65 | 340 | 10.0 | 13.0 | 0.00 | 0.00 | 0.00 | 91 | 1014.1 |
| 20260509071050 | 65 | 345 | 4.0 | 10.0 | 0.00 | 0.00 | 0.00 | 91 | 1013.7 |
| 20260509070550 | 65 | 22 | 7.0 | 10.0 | 0.00 | 0.00 | 0.00 | 90 | 1013.6 |
| 20260509070057 | 65 | 348 | 3.0 | 8.0 | 0.00 | 0.00 | 0.00 | 91 | 1013.5 |
| 20260509065551 | 65 | 0 | 1.0 | 3.0 | 0.00 | 0.00 | 0.00 | 91 | 1013.0 |
| 20260509065049 | 65 | 207 | 2.0 | 4.0 | 0.00 | 0.00 | 0.00 | 91 | 1012.6 |
| 20260509064601 | 65 | 185 | 2.0 | 6.0 | 0.00 | 0.00 | 0.00 | 91 | 1012.5 |
| 20260509064049 | 65 | 184 | 3.0 | 9.0 | 0.00 | 0.00 | 0.00 | 91 | 1012.4 |
| 20260509063549 | 66 | 196 | 5.0 | 10.0 | 0.00 | 0.00 | 0.00 | 92 | 1012.3 |
| 20260509063052 | 66 | 183 | 7.0 | 10.0 | 0.00 | 0.00 | 0.00 | 92 | 1012.3 |
| 20260509062549 | 66 | 172 | 4.0 | 7.0 | 0.00 | 0.00 | 0.00 | 92 | 1012.2 |
| 20260509062049 | 66 | 194 | 4.0 | 7.0 | 0.00 | 0.00 | 0.00 | 92 | 1012.1 |
| 20260509061601 | 66 | 203 | 4.0 | 7.0 | 0.00 | 0.00 | 0.00 | 92 | 1012.2 |
| 20260509061050 | 66 | 199 | 5.0 | 7.0 | 0.00 | 0.00 | 0.00 | 93 | 1012.0 |
| 20260509060550 | 66 | 207 | 4.0 | 7.0 | 0.00 | 0.00 | 0.00 | 92 | 1012.0 |
| 20260509060056 | 66 | 180 | 5.0 | 7.0 | 0.00 | 0.00 | 0.00 | 92 | 1011.9 |
| 20260509055547 | 67 | 175 | 5.0 | 7.0 | 0.00 | 0.00 | 0.00 | 92 | 1012.0 |
| 20260509055049 | 67 | 172 | 4.0 | 6.0 | 0.00 | 0.00 | 0.00 | 92 | 1012.0 |
| 20260509054608 | 67 | 171 | 2.0 | 6.0 | 0.00 | 0.00 | 0.00 | 92 | 1012.2 |
| 20260509054049 | 67 | 185 | 3.0 | 6.0 | 0.00 | 0.00 | 0.00 | 92 | 1012.2 |
| 20260509053550 | 67 | 191 | 3.0 | 5.0 | 0.00 | 0.00 | 0.00 | 92 | 1012.2 |
| 20260509053055 | 67 | 205 | 2.0 | 7.0 | 0.00 | 0.00 | 0.00 | 91 | 1012.4 |
| 20260509052549 | 67 | 171 | 4.0 | 8.0 | 0.00 | 0.00 | 0.00 | 91 | 1012.4 |
| 20260509052049 | 68 | 167 | 6.0 | 8.0 | 0.00 | 0.00 | 0.00 | 91 | 1012.4 |
| 20260509051553 | 68 | 157 | 6.0 | 9.0 | 0.00 | 0.00 | 0.00 | 91 | 1012.5 |
| 20260509051047 | 68 | 148 | 6.0 | 9.0 | 0.00 | 0.00 | 0.00 | 91 | 1012.6 |
| 20260509050549 | 68 | 142 | 6.0 | 9.0 | 0.00 | 0.00 | 0.00 | 91 | 1012.6 |
| 20260509050057 | 68 | 150 | 6.0 | 9.0 | 0.00 | 0.00 | 0.00 | 90 | 1012.5 |
| 20260509045546 | 68 | 139 | 7.0 | 9.0 | 0.00 | 0.00 | 0.00 | 90 | 1012.4 |
| 20260509045048 | 68 | 140 | 7.0 | 9.0 | 0.00 | 0.00 | 0.00 | 90 | 1012.3 |
| 20260509044554 | 69 | 144 | 7.0 | 9.0 | 0.00 | 0.00 | 0.00 | 90 | 1012.2 |
| 20260509044049 | 69 | 132 | 7.0 | 10.0 | 0.00 | 0.00 | 0.00 | 89 | 1012.1 |
| 20260509043550 | 69 | 131 | 7.0 | 10.0 | 0.00 | 0.00 | 0.00 | 89 | 1011.9 |
| 20260509043100 | 69 | 139 | 7.0 | 10.0 | 0.00 | 0.00 | 0.00 | 89 | 1012.0 |
| 20260509042547 | 69 | 155 | 7.0 | 10.0 | 0.00 | 0.00 | 0.00 | 88 | 1012.0 |
| 20260509042049 | 70 | 142 | 6.0 | 10.0 | 0.00 | 0.00 | 0.00 | 88 | 1012.2 |
| 20260509041550 | 70 | 140 | 8.0 | 10.0 | 0.00 | 0.00 | 0.00 | 87 | 1012.3 |
| 20260509041049 | 70 | 136 | 6.0 | 9.0 | 0.00 | 0.00 | 0.00 | 87 | 1012.4 |
| 20260509040549 | 70 | 149 | 7.0 | 10.0 | 0.00 | 0.00 | 0.00 | 87 | 1012.5 |
| 20260509040054 | 71 | 160 | 7.0 | 10.0 | 0.00 | 0.00 | 0.00 | 86 | 1012.5 |
| 20260509035549 | 71 | 159 | 6.0 | 9.0 | 0.00 | 0.00 | 0.00 | 86 | 1012.6 |
| 20260509035049 | 71 | 159 | 6.0 | 7.0 | 0.00 | 0.00 | 0.00 | 86 | 1012.7 |
| 20260509034553 | 71 | 159 | 4.0 | 7.0 | 0.00 | 0.00 | 0.00 | 86 | 1012.7 |
| 20260509034048 | 71 | 164 | 4.0 | 7.0 | 0.00 | 0.00 | 0.00 | 85 | 1012.8 |